I2HLY-3 Weather Reports


Display with metric or nautical units.
time (UTC)temp
F
wind
direction
speed
MPH
gust
MPH
rain 1hr
in
rain 24hr
in
rain mn
in
humidity
%
barometer
mb
20260902081721 80 58 1.0 5.0 0.00 0.00 0.00 63 1018.0
20260902080235 79 107 3.0 7.0 0.00 0.00 0.00 65 1018.0
20260902073230 79 82 3.0 5.0 0.00 0.00 0.00 64 1017.8
20260902071728 79 88 2.0 6.0 0.00 0.00 0.00 68 1017.7
20260902070228 78 112 3.0 7.0 0.00 0.00 0.00 69 1017.5
20260902064732 78 57 1.0 3.0 0.00 0.00 0.00 74 1017.5
20260902063223 75 32 2.0 5.0 0.00 0.00 0.00 81 1017.5
20260902061736 71 88 0.0 0.0 0.00 0.00 0.00 93 1017.5
20260902060232 69 82 0.0 0.0 0.00 0.00 0.00 94 1017.4
20260902054732 67 82 0.0 0.0 0.00 0.00 0.00 94 1017.4
20260902053225 66 82 0.0 0.0 0.00 0.00 0.00 94 1017.3
20260902051723 65 82 0.0 0.0 0.00 0.00 0.00 94 1017.2
20260902050232 64 82 0.0 0.0 0.00 0.00 0.00 93 1017.0
20260902044727 65 82 0.0 0.0 0.00 0.00 0.00 93 1017.0
20260902043219 65 82 0.0 0.0 0.00 0.00 0.00 93 1016.8
20260902041728 65 82 0.0 0.0 0.00 0.00 0.00 93 1016.8
20260902040227 65 82 0.0 0.0 0.00 0.00 0.00 93 1016.7
20260902034736 65 82 0.0 1.0 0.00 0.00 0.00 93 1016.8
20260902033219 65 82 0.0 1.0 0.00 0.00 0.00 93 1016.7
20260902031730 66 82 0.0 0.0 0.00 0.00 0.00 93 1016.7
20260902030223 66 82 0.0 0.0 0.00 0.00 0.00 93 1016.7
20260902024730 66 82 0.0 1.0 0.00 0.00 0.00 93 1016.8
20260902023236 66 82 0.0 1.0 0.00 0.00 0.00 92 1016.8
20260902021735 67 82 0.0 0.0 0.00 0.00 0.00 93 1016.6
20260902020229 67 82 0.0 0.0 0.00 0.00 0.00 92 1016.6
20260902014727 67 82 0.0 1.0 0.00 0.00 0.00 92 1016.6
20260902013234 67 82 0.0 1.0 0.00 0.00 0.00 92 1016.7
20260902011723 67 82 0.0 0.0 0.00 0.00 0.00 92 1016.7
20260902010236 67 82 0.0 0.0 0.00 0.00 0.00 92 1016.7
20260902004732 67 82 0.0 0.0 0.00 0.00 0.00 92 1016.7
20260902003232 67 81 0.0 0.0 0.00 0.00 0.00 91 1016.7
20260902001721 67 82 0.0 0.0 0.00 0.00 0.00 91 1016.7
20260902000219 67 82 0.0 0.0 0.00 0.00 0.00 91 1016.7
20260901234735 68 81 0.0 0.0 0.00 0.00 0.00 90 1016.7
20260901233229 68 82 0.0 0.0 0.00 0.00 0.00 90 1016.7
20260901231722 69 82 0.0 0.0 0.00 0.00 0.00 90 1016.8
20260901230228 69 82 0.0 0.0 0.00 0.00 0.00 89 1016.8
20260901224725 69 82 0.0 0.0 0.00 0.00 0.00 89 1016.8
20260901223220 69 82 0.0 0.0 0.00 0.00 0.00 89 1016.7
20260901221718 69 82 0.0 0.0 0.00 0.00 0.00 89 1016.7
20260901220234 69 82 0.0 0.0 0.00 0.00 0.00 89 1016.7
20260901214731 69 82 0.0 0.0 0.00 0.00 0.00 89 1016.7
20260901213220 69 82 0.0 0.0 0.00 0.00 0.00 88 1016.7
20260901211729 70 82 1.0 2.0 0.00 0.00 0.00 87 1016.6
20260901210238 70 82 0.0 0.0 0.00 0.00 0.00 87 1016.6
20260901204731 71 82 0.0 0.0 0.00 0.00 0.00 86 1016.7
20260901203220 71 82 0.0 0.0 0.00 0.00 0.00 86 1016.6
20260901201720 71 82 0.0 0.0 0.00 0.00 0.00 84 1016.4
20260901200225 72 82 0.0 0.0 0.00 0.00 0.00 84 1016.3
20260901194738 72 82 0.0 1.0 0.00 0.00 0.00 82 1016.3
20260901193225 73 82 0.0 2.0 0.00 0.00 0.00 81 1016.1
20260901191733 73 82 0.0 0.0 0.00 0.00 0.00 79 1016.0
20260901190232 74 82 0.0 1.0 0.00 0.00 0.00 77 1015.7
20260901184731 75 82 0.0 1.0 0.00 0.00 0.00 76 1015.5
20260901183222 76 82 0.0 1.0 0.00 0.00 0.00 74 1015.5
20260901181721 77 82 0.0 1.0 0.00 0.00 0.00 71 1015.3
20260901180238 78 82 1.0 2.0 0.00 0.00 0.00 67 1015.2
20260901174731 81 82 0.0 1.0 0.00 0.00 0.00 61 1015.1
20260901173221 83 82 1.0 2.0 0.00 0.00 0.00 57 1015.0
20260901170238 84 71 2.0 6.0 0.00 0.00 0.00 53 1015.0
20260901164734 85 101 1.0 4.0 0.00 0.00 0.00 53 1015.0
20260901163225 85 99 0.0 6.0 0.00 0.00 0.00 53 1015.1
20260901160221 85 125 3.0 7.0 0.00 0.00 0.00 52 1015.0
20260901153229 85 86 3.0 8.0 0.00 0.00 0.00 52 1015.1
20260901151725 85 111 3.0 5.0 0.00 0.00 0.00 53 1015.2
20260901150230 85 128 3.0 9.0 0.00 0.00 0.00 53 1015.3
20260901144732 85 198 2.0 8.0 0.00 0.00 0.00 54 1015.4
20260901143229 85 75 5.0 10.0 0.00 0.00 0.00 52 1015.5
20260901141734 85 171 5.0 8.0 0.00 0.00 0.00 55 1015.6
20260901140223 85 136 3.0 8.0 0.00 0.00 0.00 53 1015.6
20260901134729 84 57 4.0 9.0 0.00 0.00 0.00 54 1015.6
20260901131739 83 78 4.0 8.0 0.00 0.00 0.00 55 1015.9
20260901130232 84 102 3.0 8.0 0.00 0.00 0.00 58 1016.1
20260901124735 84 174 2.0 8.0 0.00 0.00 0.00 57 1016.3
20260901123237 84 157 1.0 7.0 0.00 0.00 0.00 56 1016.4
20260901121730 84 142 3.0 6.0 0.00 0.00 0.00 57 1016.5
20260901114738 84 144 4.0 5.0 0.00 0.00 0.00 57 1016.5
20260901113228 83 74 5.0 9.0 0.00 0.00 0.00 58 1016.7
20260901110221 82 103 3.0 5.0 0.00 0.00 0.00 59 1016.8
20260901104731 83 67 2.0 6.0 0.00 0.00 0.00 60 1016.9
20260901103224 82 231 2.0 5.0 0.00 0.00 0.00 62 1017.0
20260901101720 80 99 3.0 6.0 0.00 0.00 0.00 65 1017.1
20260901100222 80 82 3.0 6.0 0.00 0.00 0.00 62 1017.1
20260901094727 80 111 1.0 3.0 0.00 0.00 0.00 69 1017.1
20260901093235 79 51 2.0 3.0 0.00 0.00 0.00 67 1017.1
20260901091720 79 88 2.0 3.0 0.00 0.00 0.00 71 1017.2
20260901090238 79 113 2.0 4.0 0.00 0.00 0.00 72 1017.1
20260901084727 79 138 2.0 5.0 0.00 0.00 0.00 67 1017.1
20260901083224 80 161 3.0 7.0 0.00 0.00 0.00 67 1017.0